Regional Weather Roundup
Issued by NWS Newport/Morehead, NC

Home | Current Version | Previous Version | Text Only | Print | Product List | Glossary On
Versions: 1 2 3 4 5 6 7 8 9 10 11 12 13 14 15 16 17 18 19 20 21 22 23 24 25 26 27 28 29 30 31 32 33 34 35 36 37 38 39 40 41 42 43 44 45 46 47 48 49 50
000
ASUS42 KMHX 290725
RWRMHX
WEATHER ROUNDUP FOR EASTERN NORTH CAROLINA
NATIONAL WEATHER SERVICE NEWPORT/MOREHEAD CITY NC
300 AM EDT WED JUL 29 2015

NOTE: "FAIR" INDICATES FEW OR NO CLOUDS BELOW 12,000 FEET
WITH NO SIGNIFICANT WEATHER AND/OR OBSTRUCTIONS TO VISIBILITY

NCZ015>017-031-032-045>047-102-103-290800-
NORTH COAST

CITY           SKY/WX    TMP DP  RH WIND       PRES   REMARKS
EDENTON        PTCLDY    76  70  80 SE3       29.99F
ELIZABETH CITY CLEAR     76  71  85 S5        30.00S
KITTY HAWK     SUNNY     75  69  80 CALM      29.99S
MANTEO         CLEAR     74  71  87 CALM      30.00S

$$

NCZ045>047-081-094-103-104-290800-
CENTRAL COAST

CITY           SKY/WX    TMP DP  RH WIND       PRES   REMARKS
FRISCO         CLEAR     79  70  74 E10       29.99F
SWANQUARTER      N/A     73 N/A N/A E2        29.94F

$$

NCZ095-097-098-100-101-290800-
SOUTHERN COAST

CITY           SKY/WX    TMP DP  RH WIND       PRES   REMARKS
BEAUFORT       MOCLDY    78  72  81 E6        29.98F
CEDAR ISLAND     N/A     79 N/A N/A E10       30.00F
JACKSONVILLE   PTCLDY    77  71  82 E5        29.98F
PINEY ISLAND   MOSUNNY  N/A N/A N/A E7        29.98F
WILMINGTON     CLOUDY    73  71  93 NE5       29.98S


$$

NCZ011>013-027>030-043-044-078>080-089-090>093-098-290800-
COASTAL PLAIN

CITY           SKY/WX    TMP DP  RH WIND       PRES   REMARKS
AHOSKIE        CLEAR     71  68  91 CALM      30.00S
CLINTON        PTCLDY    74  72  93 CALM      30.00F
ELIZABETHTOWN  PTCLDY    73  71  95 CALM      29.98F
GOLDSBORO      MOCLDY    75  72  89 S1        29.97F
GREENVILLE     MOCLDY    77  72  83 SE3       30.01S
HAVELOCK       MOCLDY    75  70  84 CALM      29.99F
KENANSVILLE    CLEAR     71  69  95 CALM      30.00F
KINSTON        MOCLDY    76  71  83 SE3       30.00S
NEW BERN       MOCLDY    74  71  91 CALM      30.00F
RICHLANDS      PTCLDY    72  64  78 CALM      29.98F
ROCKY MOUNT    MOCLDY    74  71  91 CALM      29.99F
WASHINGTON     PTCLDY    73  71  91 CALM      29.99F
WHITEVILLE     PTCLDY    72  70  94 CALM      29.98F

$$

AMZ130-135-150-152-154-156-158-170-250-252-270-ANZ085-086-088-633-658-670-290800-
MARINE OBSERVATIONS

STATION/POSITION TIME  TEMP    WIND        PRES    WAVE   SWELL
                       AIR SEA DIR/SP/G            HT/PER HT/PER
                 (UTC) (F)     (DEG/KT/KT) (MB)    (FT/S) (FT/S)
CHESAPEAKE LIGHT 0700   80     180/ 13/ 13 1016.2
64 E VA BEACH    0650   80 81  160/  8/  8 1015.5    3/ 6   2/ 6
DUCK             0700   77 72  150/  5/  5 1015.0
2 E DUCK         0611      79                N/A     2/11
OREGON INLET     0700   79 82  110/  6/  8 1015.4
13E OREGON INLT  0700      81                N/A     2/11
HATTERAS CG      0700   80 83  110/  7/ 10 1015.0
DIAMOND BUOY     NOT AVBL
CAPE LOOKOUT     0700   80      80/ 12/ 13 1015.0
BEAUFORT LAB     0700   80 82   80/  5/  6 1014.5
30 SE NEW RVR IN NOT AVBL
27 SE WRIGHTSVLE 0700   78 81   80/ 12/ 14   N/A
5 SE WRIGHTSVLE  0608   81 81  100/ 10/ 14 1014.8
225 S CAPE HAT   0650   82 81  210/ 16/ 19 1013.7    5/ 7   2/10
41 SE CHARLESTON 0650   83 84   60/  8/ 10 1013.3    3/ 6   3/ 6

$$



USA.gov is the U.S. government's official web portal to all federal, state and local government web resources and services.